Find Starlink 6037

NORAD ID: 56461 Int'l Des: 2023-064 Owner: SPXS Country: US Constellation: starlink operational
LEOCIRCULAR

Live Position

Loading 3D Globe...

About Starlink 6037

Description loading...

Upcoming Passes

Passes for default location (London). Set your location on the main map for personalized predictions.

Altitude History

Loading altitude history...

Two-Line Element Set

1 56461U 23064P 26109.83843771 -.00001576 00000-0 -12436-3 0 9996
2 56461 70.0013 40.5468 0002890 268.9898 91.0930 14.98320684161411
Epoch: Apr 19, 2026 • Age: 7 hours

Current Status

Altitude 581.0 km
Velocity 7.57 km/s
Sub-Earth Point 49.64°N, 59.99°W
Launch Date May 10, 2023
Age 2.9 years
Type internet

Technical Details

Classification Payload
Mass 305.00 kg
Dry Mass 290.00 kg
Total Mass 305.00 kg
Length 0.20 m
Diameter 2.80 m
Span 9.00 m
Shape Box + pan
Manufacturer SPXS
Bus Type Starlink
Phase Status In Orbit
Owner/State SPXS/US

Most Searched